Tracking 20066 objects as of 7-Dec-2019
HD Live streaming from Space Station
objects crossing your sky now

FREGAT R/B

Track FREGAT R/B now!


NORAD ID: 41551
Int'l Code: 2016-030C
Perigee: 23,512.1 km
Apogee: 23,622.0 km
Inclination: 56.4 °
Period: 859.2 minutes
Semi major axis: 29938 km
RCS: Unknown
Launch date: May 24, 2016
Source: Commonwealth of Independent States (former USSR) (CIS)
Launch site: FRENCH GUIANA (FRGUI)

Note: This is a ROCKET BODY
aabbcc
Your satellite tracking list
Your tracking list is empty




NASA's NSSDC Master Catalog

Two Line Element Set (TLE):
1 41551U 16030C   19338.50435518 -.00000044  00000-0  00000+0 0  9999
2 41551  56.4246 288.5187 0018364 220.8837 138.9701  1.67597668 21597
Source of the keplerian elements: AFSPC